Back to catalog

STARLINK-30215

AliveCommunicationsVLEO
NORAD 57445·PAYLOAD·🇺🇸 United States

Launched Jul 24, 2023 from Cape Canaveral Space Force Station

Loading…

Next Passes (next 24 hours)

TLE

FreshSource: CelesTrak SupGP

Epoch: Sep 14, 2026, 14:36 UTC

1 57445C 23105R   26257.60881944  .00008406  00000+0  30454-3 0  2571
2 57445  43.0008 273.1723 0001486 274.8687  18.1752 15.27567774    14

Track STARLINK-30215 in real time with AllMySat

Download on the App Store